This demonstration page uses our WeatherBlox Daily Observations layout. Learn more.

41.55636, -103.73856

Hourly Observations for November 13, 2015

Temp ( °F °C ) Dew Point ( °F °C ) Humidity (%) Winds ( mph kmh ) Pressure ( in mb ) Visibility ( mi km ) Precip ( " mm )
12:53 am 00:53 Clear 24 -4.4 18 -7.8 77 77 E 3 6 30.23 1024 10 16.0934 0 0
1:53 am 01:53 Clear 26 -3.3 19 -7.2 75 75 NE 6 9 30.22 1023 10 16.0934 0 0
2:53 am 02:53 Clear 25 -3.9 19 -7.2 78 78 NE 3 6 30.22 1023 10 16.0934 0 0
3:53 am 03:53 Clear 22 -5.6 17 -8.3 82 82 ESE 7 11 30.22 1023 10 16.0934 0 0
4:53 am 04:53 Clear 24 -4.4 18 -7.8 77 77 ESE 5 7 30.24 1024 10 16.0934 0 0
5:53 am 05:53 Clear 24 -4.4 18 -7.8 77 77 E 6 9 30.26 1025 10 16.0934 0 0
6:53 am 06:53 Sunny 26 -3.3 19 -7.2 75 75 Calm 30.26 1025 10 16.0934 0 0
7:53 am 07:53 Sunny 32 0 25 -3.9 75 75 E 3 6 30.26 1025 10 16.0934 0 0
8:53 am 08:53 Sunny 46 7.8 25 -3.9 44 44 W 15 24 30.21 1023 10 16.0934 0 0
9:53 am 09:53 Sunny 50 10 23 -5 35 35 W 15 24 30.19 1022 10 16.0934 0 0
10:53 am 10:53 Sunny 53 11.7 23 -5 31 31 W 17 28 30.17 1022 10 16.0934 0 0
11:53 am 11:53 Sunny 56 13.3 22 -5.6 27 27 WNW 16 26 30.13 1020 10 16.0934 0 0
12:53 pm 12:53 Sunny 57 13.9 22 -5.6 26 26 W 21 33 30.1 1019 10 16.0934 0 0
1:53 pm 13:53 Sunny 57 13.9 22 -5.6 26 26 W 16 26 30.09 1019 10 16.0934 0 0
4:53 pm 16:53 Clear 47 8.3 24 -4.4 41 41 SW 6 9 30.11 1020 10 16.0934 0 0
5:53 pm 17:53 Clear 46 7.8 24 -4.4 42 42 SW 5 7 30.14 1021 10 16.0934 0 0
6:53 pm 18:53 Clear 44 6.7 22 -5.6 41 41 Calm 30.15 1021 10 16.0934 0 0
7:53 pm 19:53 Clear 37 2.8 22 -5.6 54 54 NNE 3 6 30.15 1021 10 16.0934 0 0
8:53 pm 20:53 Clear 37 2.8 23 -5 57 57 NNW 6 9 30.1 1019 10 16.0934 0 0
9:53 pm 21:53 Clear 32 0 22 -5.6 66 66 NNW 6 9 30.11 1020 10 16.0934 0 0
10:53 pm 22:53 Clear 31 -0.6 21 -6.1 67 67 N 3 6 30.09 1019 10 16.0934 0 0
11:53 pm 23:53 Clear 28 -2.2 21 -6.1 75 75 N 7 11 30.09 1019 10 16.0934 0 0

Powered by AerisWeather